Location: Unspecified
(48.7670°N, 0.0000°E)
Time: 09:16:32
(UTC+00:00)

Vanguard 2 Rocket - Pass Details

Date: 22 June 2019
Orbit: 554 x 3326 km, 32.9° (Epoch: 19 July)

Event Time Altitude Azimuth Distance (km) Brightness Sun altitude
Rises 20:30:03 0° 203° (SSW) 3,800 9.9 -3.7°
Reaches altitude 10° 20:33:15 10° 186° (S) 3,212 9.4 -4.1°
Maximum altitude 20:38:47 19° 143° (SE) 3,162 9.1 -4.8°
Drops below altitude 10° 20:46:25 10° 104° (ESE) 4,668 10.0 -5.6°
Sets 20:52:31 0° 91° (E) 6,236 10.7 -6.3°
